Regional Weather Roundup
Issued by NWS Cleveland, OH

Home | Current Version | Previous Version | Text Only | Print | Product List | Glossary Off
Versions: 1 2 3 4 5 6 7 8 9 10 11 12 13 14 15 16 17 18 19 20 21 22 23 24 25 26 27 28 29 30 31 32 33 34 35 36 37 38 39 40 41 42 43 44 45 46 47 48 49 50

576
ASUS41 KCLE 062100
RWRCLE
OHIO REGIONAL WEATHER ROUNDUP
NATIONAL WEATHER SERVICE WILMINGTON, OH
400 PM EST SAT FEB 06 2016

NOTE: "FAIR" INDICATES FEW OR NO CLOUDS BELOW 12,000 FEET WITH NO
SIGNIFICANT WEATHER AND/OR OBSTRUCTIONS TO VISIBILITY.

OHZ001>008-015>018-024>027-034-035-043-044-062200-
   NORTHWEST OHIO

CITY           SKY/WX    TMP DP  RH WIND       PRES   REMARKS
DEFIANCE       FAIR      39  23  52 SW9       30.21S
FINDLAY        FAIR      39  21  48 SW12      30.21S
TOLEDO EXPRESS FAIR      37  22  54 SW10      30.20S
TOLEDO EXEC    FAIR      37  24  59 SW14      30.21F
LIMA           FAIR      38  19  46 SW13      30.21F
$$

OHZ009>014-019>023-028>033-038-089-062200-
   NORTHEAST OHIO

CITY           SKY/WX    TMP DP  RH WIND       PRES   REMARKS
CLE-HOPKINS    FAIR      39  22  50 SW9       30.23S
CLE-LAKEFRONT  FAIR      35  24  64 NW3       30.21S
CUY CO. ARPT   MOSUNNY   39  25  56 NW9       30.20F
LORAIN-ELYRIA  FAIR      38  23  55 W14       30.21S
ASHTABULA      FAIR      38  21  50 VRB6      30.20S
AKRON-CANTON   FAIR      40  20  44 SW12      30.19F
WOOSTER        NOT AVBL
MANSFIELD      FAIR      38  20  48 SW10      30.20S
YOUNGSTOWN     FAIR      39  17  41 SW9       30.19S
$$

OHZ042-051>053-060>062-070>072-077>081-062200-
  SOUTHWEST OHIO

CITY           SKY/WX    TMP DP  RH WIND       PRES   REMARKS
CINC-COVINGTON NOT AVBL
CINC-LUNKEN    FAIR      47  24  40 W6        30.26F
HAMILTON       FAIR      47  22  37 W9        30.26S
DAYTON         NOT AVBL
WRIGHT-PAT AFB FAIR      44  15  31 SW10      30.24S
DAYTON GENERAL FAIR      44  18  35 W7        30.23S
WILMINGTON     FAIR      43  21  41 W13       30.23F
$$

OHZ036-037-039>041-045>050-054>059-063>069-073>076-082>088-062200-
  CENTRAL AND SOUTHEAST OHIO

CITY           SKY/WX    TMP DP  RH WIND       PRES   REMARKS
COLUMBUS       FAIR      41  11  29 SW10      30.23F
OSU AIRPORT    FAIR      41  18  39 SW13      30.23S
BOLTON FIELD   SUNNY     41  18  38 W8        30.24S
RICKENBACK AFB NOT AVBL
NEWARK         FAIR      42  15  33 SW14      30.22F
MARION         FAIR      39  19  44 SW13      30.22S
LANCASTER      FAIR      43  15  32 SW9       30.24F
ZANESVILLE     FAIR      44  12  27 SW7       30.23S
NEW PHILLY     FAIR      42  17  36 VRB6      30.22F
$$




USA.gov is the U.S. government's official web portal to all federal, state and local government web resources and services.